Regional Weather Roundup
Issued by NWS Charleston, WV

Home | Current Version | Previous Version | Graphics & Text | Print | Product List | Glossary On
Versions: 1 2 3 4 5 6 7 8 9 10 11 12 13 14 15 16 17 18 19 20 21 22 23 24 25 26 27 28 29 30 31 32 33 34 35 36 37 38 39 40 41 42 43 44 45 46 47 48 49 50
759
ASUS41 KRLX 110410
RWRRLX
West Virginia Regional Weather Roundup
National Weather Service Charleston WV
1100 PM EST SUN DEC 10 2017

Note: "fair" indicates few or no clouds below 12,000 feet with no
significant weather and/or obstructions to visibility.

WVZ003-110500-
Northern Panhandle of West Virginia

CITY           SKY/WX    TMP DP  RH WIND       PRES   REMARKS
WHEELING       CLOUDY    31  16  54 SW10      29.97F
$$

WVZ009-110500-
Northwest West Virginia

CITY           SKY/WX    TMP DP  RH WIND       PRES   REMARKS
PARKERSBURG    CLOUDY    35  17  47 SW9       30.05S
$$

WVZ006-110500-
Western West Virginia

CITY           SKY/WX    TMP DP  RH WIND       PRES   REMARKS
HUNTINGTON     PTCLDY    35  15  44 S7        30.06S
$$

WVZ015-110500-
West Central West Virginia

CITY           SKY/WX    TMP DP  RH WIND       PRES   REMARKS
CHARLESTON     MOCLDY    36  17  46 SW6       30.05F
$$

WVZ022-031-110500-
North Central West Virginia

CITY           SKY/WX    TMP DP  RH WIND       PRES   REMARKS
CLARKSBURG     CLOUDY    34  19  54 SW8       30.02S
MORGANTOWN     CLOUDY    33  17  51 SW6       30.01S
$$

WVZ025-035-042-045-110500-
Southern West Virginia

CITY           SKY/WX    TMP DP  RH WIND       PRES   REMARKS
BECKLEY        NOT AVBL
LOGAN          CLOUDY    36  14  41 CALM      30.06S
BLUEFIELD      CLEAR     29  14  53 W15       30.03R
LEWISBURG      CLEAR     32  16  51 SW8       30.03S
$$

WVZ047-110500-
Northern Mountains of West Virginia

CITY           SKY/WX    TMP DP  RH WIND       PRES   REMARKS
ELKINS         CLOUDY    34  13  41 W12G18    30.01R
$$

WVZ052-110500-
Eastern Panhandle of West Virginia

CITY           SKY/WX    TMP DP  RH WIND       PRES   REMARKS
MARTINSBURG    CLOUDY    32  21  64 CALM      30.01S
PETERSBURG     PTCLDY    32  16  52 E8        29.99F
$$




USA.gov is the U.S. government's official web portal to all federal, state and local government web resources and services.